Location: Claflin County Park
(44.8478°N, 87.5507°W)
Time: 16:59:15
(UTC+00:00)

COSMOS 2406 - Pass Details

Date: 10 December 2025
Orbit: 844 x 860 km, 71.0° (Epoch: 22 January)

Event Time Altitude Azimuth Distance (km) Brightness Sun altitude
Exits shadow 10:01:55 34° 143° (SE) 1,371 4.5 -33.6°
Maximum altitude 10:03:29 41° 107° (ESE) 1,212 4.3 -33.4°
Drops below altitude 10° 10:08:45 10° 39° (NE) 2,472 6.0 -32.4°
Sets 10:11:19 0° 32° (NNE) 3,412 6.7 -32.0°
